Location: Peterborough
(44.3091°N, 78.3197°W)
Time: 04:06:15
(UTC-04:00)

S-56A Canister/Altair - Pass Details

Date: 23 March 2023
Orbit: 639 x 2492 km, 38.9° (Epoch: 08 June)

Event Time Altitude Azimuth Distance (km) Brightness Sun altitude
Rises 22:59:11 0° 263° (W) 5,604 12.4 -34.7°
Reaches altitude 10° 23:02:34 10° 261° (W) 4,774 11.9 -35.1°
Maximum altitude 23:16:41 71° 181° (S) 2,587 9.8 -36.8°
Enters shadow 23:18:35 66° 143° (SE) 2,652 9.8 -37.0°
Drops below altitude 10° 23:31:15 10° 102° (ESE) 4,913 - -38.4°
Sets 23:34:48 0° 100° (E) 5,768 - -38.8°
